Weather observations for the past three days for
Witham Field Airport
Imperial (Metric)
Date Time (edt) Wind (mph) Vis. (mi.) Weather Sky Cond. Temperature (ºF) Relative Humidity Wind Chill (°F) Heat Index (°F) Pressure Precipitation (in)
Air Dwpt 6 hour altimeter (in) sea level (mb) 1 hr 3 hr 6 hr
Max. Min.
21 09:50 E 10 5.00 Mostly Cloudy with Haze BKN020 BKN025 BKN034 91.4 78.8 67% 108 30.08 0.0
21 08:50 SE 6 5.00 Partly Cloudy with Haze SCT017 86 80.6 84% 102 30.08 0.0
21 07:50 Calm 5.00 Partly Cloudy with Haze SCT018 82.4 80.6 94% 94 30.06 0.0
21 06:50 Calm 5.00 Fog/Mist SCT015 80.6 78.8 94% 88 30.04 0.0
21 06:35 SE 5 6.00 Fog/Mist CLR 80.6 80.6 100% 89 30.04 0.0
21 06:15 Calm 6.00 Fog/Mist CLR 80.6 78.8 94% 88 30.04 0.0
21 05:55 Calm 6.00 Fog/Mist CLR 80.6 78.8 94% 88 30.03 0.0
21 05:35 E 5 5.00 Fog/Mist CLR 80.6 78.8 94% 88 30.03 0.0
21 05:15 E 6 6.00 Fog/Mist FEW017 FEW023 80.6 80.6 100% 89 30.04 0.0
21 04:55 N 3 6.00 Fog/Mist CLR 78.8 78.8 100% 83 30.05 0.0
21 04:35 E 5 6.00 Fog/Mist FEW019 FEW024 80.6 80.6 100% 89 30.05 0.0
21 04:15 E 5 7.00 A Few Clouds FEW019 FEW024 80.6 78.8 94% 88 30.06 0.0
21 03:55 Calm 7.00 Fair CLR 80.6 78.8 94% 88 30.07 0.0
21 03:35 Calm 7.00 Fair CLR 80.6 78.8 94% 88 30.07 0.0
21 03:15 Calm 8.00 Fair CLR 78.8 78.8 100% 83 30.07 0.0
21 02:55 Calm 7.00 Fair CLR 78.8 78.8 100% 83 30.08 0.0
21 02:35 Calm 8.00 A Few Clouds FEW016 80.6 78.8 94% 88 30.09 0.0
21 02:15 Calm 8.00 Partly Cloudy SCT017 80.6 78.8 94% 88 30.09 0.0
21 01:55 Calm 8.00 A Few Clouds FEW060 80.6 78.8 94% 88 30.11 0.0
21 01:35 Calm 8.00 A Few Clouds FEW060 80.6 78.8 94% 88 30.12 0.0
21 01:15 Calm 8.00 Mostly Cloudy BKN060 80.6 78.8 94% 88 30.12 0.0
21 00:55 Calm 8.00 Mostly Cloudy BKN060 80.6 78.8 94% 88 30.12 0.0
21 00:35 Calm 9.00 Mostly Cloudy FEW014 BKN060 80.6 78.8 94% 88 30.12 0.0
21 00:15 Calm 8.00 Thunderstorm in Vicinity FEW015 SCT055 80.6 78.8 94% 88 30.12 0.0
20 23:55 Calm 9.00 Partly Cloudy SCT055 80.6 78.8 94% 88 30.13 0.0
20 23:35 Calm 9.00 Fair CLR 82.4 78.8 89% 92 30.12 0.0
20 23:15 Calm 9.00 Fair CLR 82.4 78.8 89% 92 30.13 0.0
20 22:55 Calm 9.00 Fair CLR 82.4 78.8 89% 92 30.13 0.0
20 22:35 Calm 10.00 Fair CLR 82.4 80.6 94% 94 30.13 0.0
20 22:15 SE 5 10.00 Fair CLR 82.4 80.6 94% 94 30.13 0.0
20 19:47 SE 9 7.00 Mostly Cloudy with Haze BKN055 86 78.8 79% 99 30.08 0.0
20 18:47 SE 15 6.00 Mostly Cloudy SCT020 BKN075 87.8 78.8 75% 102 30.07 0.0
20 17:47 SE 9 6.00 Thunderstorm in Vicinity SCT020 BKN075 89.6 77 67% 103 30.09 0.0
20 16:47 E 13 6.00 Mostly Cloudy with Haze SCT020 BKN075 89.6 78.8 71% 105 30.1 0.0
20 15:47 SE 8 7.00 Partly Cloudy SCT020 87.8 77 70% 100 30.11 0.0
20 14:47 S 3 7.00 Mostly Cloudy BKN018 84.2 77 79% 94 30.12 0.0
20 13:47 E 12 7.00 Thunderstorm SCT016 BKN025 89.6 78.8 71% 105 30.13 0.0
20 12:50 E 15 7.00 Thunderstorm SCT016 BKN025 91.4 80.6 71% 111 30.12 0.0
20 11:50 SE 13 7.00 Thunderstorm in Vicinity NULL 91.4 80.6 71% 111 30.12 0.0
20 10:47 SE 12 7.00 Partly Cloudy SCT016 89.6 80.6 75% 108 30.13 0.0
20 09:50 SE 12 7.00 Partly Cloudy SCT016 89.6 78.8 71% 105 30.12 0.0
20 06:50 SE 5 7.00 Partly Cloudy SCT026 82.4 75.2 79% 89 30.1 0.0
20 06:47 SE 7 7.00 Showers in Vicinity SCT024 80.6 75.2 84% 86 30.08 0.0
20 06:35 SE 3 10.00 Fair CLR 80.6 75.2 84% 86 30.08 0.0
20 06:15 SE 3 10.00 Fair CLR 80.6 75.2 84% 86 30.08 0.0
20 05:55 SE 5 10.00 Fair CLR 78.8 75.2 89% 82 30.07 0.0
20 05:35 Calm 10.00 Fair CLR 80.6 75.2 84% 86 30.08 0.0
20 05:15 SE 7 10.00 Fair CLR 80.6 75.2 84% 86 30.07 0.0
20 04:55 SE 8 10.00 Fair CLR 80.6 77 89% 87 30.07 0.0
20 04:35 E 6 10.00 Partly Cloudy SCT018 78.8 77 94% 83 30.08 0.0
20 04:15 E 3 10.00 Mostly Cloudy BKN018 78.8 77 94% 83 30.08 0.0
20 03:55 Calm 10.00 Fair CLR 78.8 75.2 89% 82 30.09 0.0
20 03:35 E 3 10.00 Fair CLR 78.8 75.2 89% 82 30.09 0.0
20 03:15 Calm 10.00 Thunderstorm in Vicinity CLR 80.6 75.2 84% 86 30.09 0.0
20 02:55 Calm 10.00 Thunderstorm in Vicinity CLR 80.6 75.2 84% 86 30.09 0.0
20 02:35 Calm 10.00 Thunderstorm in Vicinity CLR 80.6 75.2 84% 86 30.1 0.0
20 02:15 Calm 10.00 Thunderstorm in Vicinity CLR 80.6 75.2 84% 86 30.12 0.0
20 01:55 Calm 10.00 Thunderstorm in Vicinity FEW019 80.6 75.2 84% 86 30.12 0.0
20 01:35 Vrbl 3 10.00 Thunderstorm in Vicinity SCT020 80.6 75.2 84% 86 30.12 0.0
20 01:15 SW 5 10.00 Thunderstorm in Vicinity CLR 82.4 75.2 79% 89 30.13 0.0
20 00:55 SE 5 10.00 Thunderstorm CLR 82.4 75.2 79% 89 30.12 0.0
20 00:35 S 3 10.00 Thunderstorm FEW085 82.4 73.4 74% 88 30.12 0.0
20 00:15 SE 6 10.00 Thunderstorm FEW085 82.4 75.2 79% 89 30.12 0.0
19 23:55 SE 6 10.00 Thunderstorm in Vicinity FEW021 FEW026 82.4 75.2 79% 89 30.13 0.0
19 23:35 S 8 10.00 Partly Cloudy FEW020 SCT026 82.4 75.2 79% 89 30.13 0.0
19 23:15 E 6 10.00 Fair CLR 82.4 77 84% 91 30.12 0.0
19 22:55 SE 8 10.00 Thunderstorm in Vicinity CLR 82.4 78.8 89% 92 30.12 0.0
19 22:35 SE 5 10.00 Fair CLR 82.4 78.8 89% 92 30.12 0.0
19 22:15 E 3 10.00 Thunderstorm CLR 84.2 78.8 84% 96 30.11 0.0
19 21:47 Calm 7.00 Partly Cloudy SCT024 84.2 78.8 84% 96 30.11 0.0
19 20:47 Calm 7.00 Partly Cloudy SCT024 82.4 77 84% 91 30.07 0.0
19 19:47 SE 7 7.00 Partly Cloudy SCT024 86 78.8 79% 99 30.05 0.0
19 18:47 E 9 7.00 Partly Cloudy SCT024 86 78.8 79% 99 30.05 0.0
19 17:47 NE 3 7.00 NULL NULL 87.8 75.2 66% 98 30.05 0.0
19 16:47 Calm 7.00 Thunderstorm in Vicinity SCT015 84.2 71.6 66% 90 30.07 0.0
19 15:47 W 8 7.00 Thunderstorm in Vicinity SCT015 BKN024 82.4 71.6 70% 87 30.09 0.0
19 14:47 E 15 G 23 7.00 Thunderstorm in Vicinity SCT015 BKN024 91.4 77 63% 105 30.08 0.0
19 13:47 E 16 G 23 7.00 Thunderstorm in Vicinity SCT015 BKN024 91.4 77 63% 105 30.09 0.0
19 12:47 E 14 G 21 7.00 Showers in Vicinity SCT015 BKN024 91.4 78.8 67% 108 30.09 0.0
19 11:47 SE 14 7.00 Mostly Cloudy SCT016 BKN024 89.6 77 67% 103 30.09 0.0
19 10:47 SE 14 7.00 Mostly Cloudy SCT018 BKN024 89.6 78.8 71% 105 30.09 0.0
19 09:47 S 12 7.00 Partly Cloudy SCT025 87.8 77 70% 100 30.09 0.0
19 08:47 SE 9 7.00 Thunderstorm in Vicinity SCT025 84.2 77 79% 94 30.09 0.0
19 07:47 S 9 7.00 Thunderstorm in Vicinity SCT025 80.6 75.2 84% 86 30.08 0.0
19 06:50 SE 6 7.00 Thunderstorm Rain in Vicinity SCT030 BKN050 78.8 77 94% 83 30.06 0.0
19 06:35 SE 6 10.00 Thunderstorm FEW095 78.8 77 94% 83 30.06 0.0
19 06:15 SE 3 10.00 Thunderstorm in Vicinity CLR 80.6 77 89% 87 30.05 0.0
19 05:55 Calm 10.00 Fair CLR 78.8 77 94% 83 30.04 0.0
19 05:35 Calm 10.00 Fair CLR 78.8 77 94% 83 30.05 0.0
19 05:15 Calm 10.00 Fair CLR 78.8 77 94% 83 30.04 0.0
19 04:55 Calm 10.00 Fair CLR 78.8 77 94% 83 30.04 0.0
19 04:35 Calm 10.00 Fair CLR 78.8 77 94% 83 30.04 0.0
19 04:15 Calm 10.00 Fair CLR 78.8 77 94% 83 30.04 0.0
19 03:55 Calm 10.00 A Few Clouds FEW024 78.8 77 94% 83 30.05 0.0
19 03:35 Calm 10.00 Fair CLR 78.8 77 94% 83 30.05 0.0
19 03:15 Calm 10.00 Fair CLR 78.8 77 94% 83 30.06 0.0
19 02:55 Calm 10.00 Fair CLR 78.8 77 94% 83 30.06 0.0
19 02:35 Calm 10.00 Fair CLR 78.8 78.8 100% 83 30.05 0.0
19 02:15 Calm 10.00 Fair CLR 78.8 77 94% 83 30.06 0.0
19 01:55 Calm 10.00 Fair CLR 78.8 77 94% 83 30.06 0.0
19 01:35 Calm 10.00 Fair CLR 78.8 78.8 100% 83 30.06 0.0
19 01:15 Calm 10.00 Fair CLR 80.6 78.8 94% 88 30.08 0.0
19 00:55 Calm 10.00 Fair CLR 80.6 78.8 94% 88 30.08 0.0
19 00:35 Calm 10.00 Fair CLR 80.6 78.8 94% 88 30.08 0.0
19 00:15 Calm 10.00 Fair CLR 80.6 78.8 94% 88 30.09 0.0
18 23:55 SW 3 10.00 Fair CLR 82.4 78.8 89% 92 30.09 0.0
18 22:55 Calm 10.00 A Few Clouds FEW026 82.4 78.8 89% 92 30.09 0.0
18 22:35 Calm 10.00 Fair CLR 82.4 78.8 89% 92 30.09 0.0
18 22:15 W 3 10.00 A Few Clouds FEW022 82.4 78.8 89% 92 30.08 0.0
18 21:47 Calm 7.00 Partly Cloudy SCT021 84.2 78.8 84% 96 30.06 0.0
18 20:47 SE 7 7.00 Partly Cloudy SCT021 84.2 78.8 84% 96 30.03 0.0
18 19:47 SE 12 7.00 Partly Cloudy SCT021 86 77 75% 97 30.02 0.0
18 18:47 SE 9 7.00 Partly Cloudy SCT021 86 78.8 79% 99 30.03 0.0
18 17:47 SE 9 7.00 Showers in Vicinity SCT014 SCT021 86 78.8 79% 99 30.05 0.0
18 16:47 Calm 7.00 Showers in Vicinity SCT014 SCT027 86 78.8 79% 99 30.05 0.0
18 15:47 Vrbl 6 7.00 Thunderstorm in Vicinity Light Rain SCT018 BKN027 84.2 77 79% 94 30.07 0.0
18 14:47 Calm 7.00 Thunderstorm in Vicinity Light Rain SCT018 BKN027 86 75.2 70% 95 30.06 0.0
18 13:47 Vrbl 6 7.00 Thunderstorm in Vicinity Light Rain SCT018 BKN027 84.2 77 79% 94 30.08 0.0
18 12:05 Vrbl 7 4.00 Thunderstorm Rain SCT015 BKN023 80.6 77 89% 87 30.09 0.0
18 11:47 Vrbl 7 5.00 Thunderstorm in Vicinity Light Rain SCT015 BKN023 89.6 77 67% 103 30.08 0.0
18 10:47 SE 13 5.00 Light Rain SCT015 BKN023 87.8 78.8 75% 102 30.09 0.0
Date Time (edt) Wind (mph) Vis. (mi.) Weather Sky Cond. Air Dwpt Max. Min. Relative Humidity Wind Chill (°F) Heat Index (°F) altimeter (in) sea level (mb) 1 hr 3 hr 6 hr
6 hour
Temperature (ºF) Pressure Precipitation (in)